Location: Unspecified
(47.5370°N, 14.6980°E)
Time: 07:25:31
(UTC+00:00)

Daily predictions for brighter satellites

Satellite Brightness Start Highest point End
(mag) Time Altitude Azimuth Time Altitude Azimuth Time Altitude Azimuth
NOSS 2-3 (C) 4.4 18:15:29 10° NW 18:20:31 86° NE 18:27:34 10° SE
Cosmos 2341 Rocket 4.4 18:21:12 10° SSE 18:27:00 42° E 18:32:52 10° NNE
Cosmos 1733 Rocket 4.5 18:24:07 10° SE 18:27:12 19° E 18:30:19 10° NE
Meteor 1-12 Rocket 4.4 18:21:52 10° S 18:27:50 75° E 18:33:52 10° NNE
SL-8 Rocket 4.3 18:26:35 10° SSE 18:32:30 47° E 18:38:31 10° NNE
Feng Yun 1-1 Rocket 4.4 18:34:41 10° SE 18:40:05 56° ENE 18:45:24 10° N
In-Cosmos 22 Rocket 4.1 18:34:52 10° N 18:40:12 72° ENE 18:45:30 10° SSE
USA 59 Rocket 1.0 18:39:18 10° NNW 18:42:03 24° NE 18:45:15 10° E
PAYLOAD B 4.4 18:37:01 10° SE 18:42:20 54° ENE 18:47:42 10° N
USA 234 3.3 18:36:32 10° ENE 18:42:59 57° SE 18:49:25 10° SW
Cosmos 1400 Rocket 4.1 18:41:03 10° SE 18:43:20 17° E 18:45:44 10° NE
Helios 1A Rocket 2.5 18:41:00 10° NNE 18:44:07 45° E 18:47:12 10° S
IRAS Rocket 4.2 18:38:46 10° SSE 18:44:16 87° ENE 18:49:47 10° NNW
SJ-6B 4.3 18:41:44 10° SSW 18:45:07 35° W 18:48:29 10° NNW
SL-16 R/B 4.0 18:45:32 10° ESE 18:46:18 10° E 18:47:14 10° E
Cosmos 2366 rocket 4.1 18:40:39 10° SSE 18:46:37 54° E 18:52:34 10° NNE
MOS 1 4.5 18:41:49 10° SE 18:47:20 57° ENE 18:52:52 10° N
Cosmos 1869 Rocket 3.5 18:44:48 10° S 18:49:10 77° E 18:53:36 10° NNE
Cosmos 2327 Rocket 4.5 18:43:39 10° S 18:49:50 83° E 18:56:11 10° N
USA 238 DEB 4.1 18:45:02 10° NW 18:52:23 72° NE 18:59:43 13° SE
USA 238 4.1 18:45:13 10° NW 18:52:34 71° NE 18:59:53 13° SE
CSL-04 Debris 4.2 18:48:30 10° SSE 18:53:51 83° WSW 18:59:17 10° NNW
Cosmos 1346 Rocket 4.5 18:52:21 10° NNE 18:54:29 15° ENE 18:55:50 13° E
SPOT 5 3.2 18:52:58 10° S 18:57:33 61° W 19:01:57 10° NNW
Lacrosse 5 rocket 3.1 18:57:08 10° WNW 18:59:46 23° NNW 19:02:22 10° NE
CZ-4 R/B 1.6 19:03:03 10° S 19:06:48 65° W 19:10:30 10° NNW
Okean-O 3.4 19:05:10 17° ESE 19:07:53 34° ENE 19:11:50 10° N
Cosmos 614 Rocket 4.3 19:03:14 10° NNW 19:08:18 51° ENE 19:11:57 18° SE
ERS-1 Rocket 2.9 19:05:13 10° SSE 19:10:13 82° ENE 19:15:15 10° NNW
BREEZE-M DEB (TANK) 4.1 19:02:22 10° WNW 19:11:22 66° SSW 19:13:31 21° SE
ASTEX 1 4.2 19:10:49 18° SE 19:13:39 33° ENE 19:18:01 10° NNE
IRS-1A Rocket 4.4 19:09:05 13° SSE 19:13:56 61° ENE 19:19:33 10° N
SKYMED 3 4.3 19:10:18 10° NNE 19:14:08 54° E 19:17:55 10° S
Cosmos 1959 Rocket 4.5 19:08:48 10° S 19:15:08 77° E 19:21:27 10° NNE
NOSS 2-1 (D) 3.9 19:12:16 10° NNW 19:15:22 38° NE 19:17:27 21° ESE
NOSS 2-1 (E) 4.2 19:13:30 10° NNW 19:16:28 31° NE 19:18:25 19° E
MetOp-B 4.1 19:11:09 10° SSE 19:16:30 83° ENE 19:21:54 10° NNW
Cosmos 2237 Rocket 2.2 19:11:18 10° SSW 19:16:54 65° ESE 19:22:33 10° NNE
Meteor 2-14 Rocket 4.4 19:12:07 10° N 19:18:16 88° E 19:24:23 10° S
Cosmos 1980 3.6 19:12:44 10° SSW 19:18:21 72° ESE 19:23:59 10° NNE
Geosat 4.0 19:14:01 10° NE 19:18:58 58° ESE 19:23:53 10° SSW
ADEOS 3.5 19:14:22 12° SSE 19:19:17 82° ENE 19:24:32 10° NNW
NOSS 2-1 (C) 3.9 19:17:19 10° NNW 19:20:23 37° NE 19:22:15 23° E
Cosmos 2218 Rocket 3.9 19:14:35 10° S 19:20:43 88° E 19:26:55 10° N
Spot 2 Rocket 3.7 19:19:00 20° SE 19:22:22 53° ENE 19:27:14 10° N
Okean O Rocket 1.9 19:20:32 22° SE 19:23:02 49° ENE 19:27:13 10° N
Meteor 1-11 4.1 19:17:33 10° N 19:23:06 74° ENE 19:27:35 16° SSE
Cosmos 1821 Rocket 4.0 19:17:53 10° S 19:24:04 69° E 19:30:23 10° NNE
Meteor 1-31 Rocket 4.4 19:24:27 10° SSW 19:27:35 30° W 19:30:44 10° NNW
NOSS 0 Rocket 4.1 19:21:34 10° SSW 19:27:48 77° WNW 19:34:05 10° NNE
CZ-4B R/B 4.4 19:26:52 21° ESE 19:28:51 29° ENE 19:32:56 10° N
Cosmos 1674 Rocket 3.8 19:26:23 10° N 19:30:35 48° ENE 19:32:28 28° SE
SPOT 3 Rocket 4.4 19:28:47 23° ESE 19:31:11 34° ENE 19:35:49 10° N
Cosmos 2242 Rocket 3.6 19:28:08 10° N 19:32:38 85° W 19:35:58 18° S
NOSS 3-4 (A) 3.1 19:28:34 10° SW 19:33:50 88° NW 19:39:41 10° NE
NOSS 3-4 (C) 3.1 19:29:03 10° SW 19:34:21 89° NW 19:40:14 10° NE
Cosmos 1908 Rocket 4.4 19:35:08 27° ESE 19:35:42 28° E 19:39:25 10° NNE
Cosmos 2084 Rocket 3.2 19:33:14 10° SW 19:37:17 89° WNW 19:41:26 10° NE
Terra 2.1 19:33:29 12° S 19:37:43 64° WSW 19:42:25 10° NNW
Cosmos 1656 Rocket 3.9 19:33:53 10° NNW 19:39:16 55° ENE 19:41:57 28° ESE
RESURS DK-1 2.1 19:35:44 10° SSW 19:39:38 64° ESE 19:43:34 10° NE
Cosmos 2292 Rocket 3.7 19:39:56 10° N 19:44:48 56° ENE 19:46:07 38° SE
Cosmos 1378 Rocket 3.6 19:41:54 10° NNW 19:46:19 80° W 19:48:50 25° S
Cosmos 2369 Rocket 3.2 19:41:34 10° NNW 19:46:39 34° NE 19:49:01 24° E
CZ-2C R/B 3.8 19:52:40 21° NE 19:52:40 21° NE 19:54:20 10° NNE
BREEZE-M DEB (TANK) 2.9 19:50:40 10° W 19:53:07 62° N 19:56:14 19° ENE
USA 186 2.6 19:57:03 32° NW 19:57:03 32° NW 19:58:30 10° NNW
Cosmos 1943 Rocket 3.7 19:51:58 10° NW 19:56:52 30° WSW 20:01:43 10° SSW
CZ-4B R/B 4.1 19:52:20 11° S 19:57:30 49° W 20:02:59 10° NNW
Aureole 3 4.4 19:52:56 10° NNW 19:57:34 60° W 20:01:56 16° S
Meteor 2-8 Rocket 4.3 19:54:57 17° S 19:59:47 76° E 20:05:51 10° NNE
Cosmos 2278 Rocket 3.5 19:54:58 10° NW 20:00:04 35° WSW 20:04:30 13° SSW
NOSS 8 (A) 4.3 19:59:25 10° NW 20:02:14 63° WSW 20:02:14 63° WSW
SL-08 R/B 3.8 19:57:47 10° N 20:02:38 63° WNW 20:07:28 10° SSW
Cosmos 1733 Rocket 4.1 20:00:19 10° SSW 20:04:30 45° WNW 20:08:44 10° N
Cosmos 2221 Rocket 3.4 20:12:23 10° N 20:16:49 85° E 20:17:37 59° SSE
Cosmos 1025 Rocket 3.2 20:12:36 10° NNW 20:16:49 66° W 20:18:01 43° SSW
Cosmos 2298 Rocket 4.2 20:17:05 48° SE 20:17:40 50° ESE 20:22:47 10° NNE
Cosmos 1400 Rocket 4.2 20:15:26 12° SW 20:18:24 34° WNW 20:21:43 10° N
Cosmos 1300 Rocket 3.8 20:21:22 49° ENE 20:21:22 49° ENE 20:25:07 10° NNE
Gblst 52 Del rocket 4.4 20:15:40 10° SW 20:21:44 71° SSE 20:28:47 10° ENE
Cosmos 1125 Rocket 4.4 20:20:01 10° SW 20:25:05 50° WNW 20:30:13 10° NNE
USA 234 3.8 20:19:37 10° NE 20:26:03 60° NNW 20:32:27 10° WSW
SL-08 R/B 4.4 20:23:14 26° S 20:26:53 87° W 20:33:02 10° N
USA 245 3.9 20:27:47 52° SSW 20:28:46 70° W 20:33:54 10° NNW
SL-16 R/B 2.1 20:27:15 40° S 20:29:16 69° ESE 20:34:56 10° NNE
CZ-4B R/B 2.9 20:30:02 61° WNW 20:30:02 61° WNW 20:33:15 10° NNW
Cosmos 1346 Rocket 3.4 20:26:24 10° NNW 20:29:50 42° W 20:30:06 41° WSW
USA 59 Rocket 0.7 20:27:21 10° WNW 20:30:40 38° SW 20:30:47 38° SW
ATLAS 5 CENTAUR R/B 4.0 20:31:03 10° N 20:32:47 12° NNE 20:34:38 10° NE
Lacrosse 5 rocket 3.4 20:35:19 10° NW 20:37:16 15° N 20:38:32 13° NNE
Cosmos 405 Rocket 4.3 20:38:43 10° N 20:39:58 22° N 20:39:58 22° N
Cosmos 2058 4.2 20:39:21 10° N 20:41:52 29° NE 20:41:52 29° NE
Okean-O 4.3 20:42:30 21° SW 20:44:11 27° W 20:47:56 10° NW
Cosmos 1269 Rocket 4.5 20:40:07 10° NNW 20:45:13 46° ENE 20:45:39 45° ENE
SeaSat 1 3.5 20:45:36 32° ENE 20:46:17 33° NE 20:50:39 10° NNW
Cosmos 1934 Rocket 4.1 20:49:03 34° SSW 20:51:58 73° W 20:58:13 10° N
Ariane Rocket 3.1 20:52:30 56° SW 20:53:14 64° WSW 20:58:15 10° NNW
Cosmos 1975 Rocket 3.3 20:53:43 10° N 20:57:35 64° NNE 20:57:35 64° NNE
Okean O Rocket 3.8 20:57:46 15° WSW 20:59:29 19° W 21:02:34 10° NW
Cosmos 2237 Rocket 4.3 20:56:40 10° WSW 21:01:25 26° NW 21:06:12 10° N
Cosmos 2150 Rocket 4.2 21:02:32 46° SW 21:03:55 66° WNW 21:09:07 10° NNE
SJ 16-02 3.3 21:01:16 10° N 21:03:51 18° NE 21:03:51 18° NE
Cosmos 1447 Rocket 4.4 21:00:09 10° N 21:06:27 71° E 21:07:08 65° ESE
CZ-4B R/B 4.3 21:06:43 37° WSW 21:07:21 39° W 21:11:48 10° NNW
Cosmos 967 Rocket 4.3 21:06:05 10° NW 21:12:34 82° WSW 21:13:21 69° S
Cosmos 2297 3.7 21:11:02 10° NNW 21:16:45 67° WSW 21:17:02 66° SW
Cosmos 44 3.8 21:16:25 43° WSW 21:17:55 63° NW 21:23:13 10° NNE
Cosmos 1140 Rocket 3.5 21:14:55 10° NNW 21:19:43 77° NNW 21:19:43 77° NNW
COSMOS 2455 3.3 21:16:30 10° NNW 21:22:22 50° NE 21:23:06 48° ENE
Cosmos 407 Rocket 4.0 21:17:23 10° NNW 21:21:59 48° NE 21:21:59 48° NE
Cosmos 1782 Rocket 4.5 21:22:56 43° WNW 21:22:56 43° WNW 21:26:48 10° N
Cosmos 921 Rocket 3.9 21:19:57 10° NNW 21:23:16 48° N 21:23:16 48° N
ARIANE 5 R/B 4.2 21:27:59 26° NE 21:27:59 26° NE 21:30:41 10° N
Helios 1B rocket 4.3 21:31:47 24° N 21:31:47 24° N 21:33:18 10° N
Cosmos 2369 Rocket 2.7 21:25:29 10° NW 21:30:48 46° WSW 21:30:48 46° WSW
NOSS 3-1 (C) 4.0 21:24:13 10° NW 21:31:18 74° SW 21:32:50 60° S
Cosmos 1605 Rocket 4.2 21:30:32 53° SW 21:31:42 63° WNW 21:37:49 10° N
Cosmos 1943 3.2 21:46:34 76° NNW 21:46:34 76° NNW 21:51:55 10° NNE
Cosmos 371 Rocket 4.1 21:43:02 10° NNW 21:46:45 48° N 21:46:45 48° N
Cosmos 2173 Rocket 4.1 21:49:23 63° ENE 21:49:23 63° ENE 21:54:53 10° NNE
Meteor 2-17 Rocket 4.4 21:45:04 10° NNW 21:51:13 74° W 21:51:15 74° W
Cosmos 2100 Rocket 3.9 22:04:13 80° NNE 22:04:13 80° NNE 22:10:04 10° N
USA 234 4.5 22:02:26 10° ENE 22:08:25 40° N 22:14:24 10° WNW
SL-16 R/B 4.1 22:09:16 10° W 22:13:54 25° NW 22:18:34 10° N
ATLAS 5 CENTAUR R/B 3.2 22:11:40 10° NNW 22:13:57 31° N 22:13:57 31° N
Cosmos 1818 4.2 22:16:06 10° NNW 22:20:58 50° NNE 22:20:58 50° NNE
SeaSat 1 3.8 22:25:13 32° WNW 22:25:13 32° WNW 22:28:14 10° NW
NOSS 3-1 (A) 3.9 22:20:00 10° NW 22:27:10 72° SW 22:27:31 71° SW
SJ 16-02 3.4 22:38:32 10° NNW 22:40:20 24° NW 22:40:20 24° NW
Cosmos 1833 Rocket 4.2 22:45:00 27° ENE 22:45:00 27° ENE 22:48:01 10° NE
Cosmos 1656 4.3 22:41:54 10° NNW 22:45:56 51° NW 22:45:56 51° NW
Cosmos 1725 Rocket 4.1 22:48:52 70° NW 22:48:52 70° NW 22:54:49 10° N
Cosmos 1802 Rocket 4.3 22:55:54 59° WNW 22:55:54 59° WNW 23:01:54 10° N
ACS3 Solar Sail 3.5 22:52:12 10° NE 22:56:19 19° E 22:56:19 19° E
DEBRIS 4.2 22:59:10 72° W 22:59:52 85° N 23:17:25 10° E
Cosmos 2233 Rocket 4.1 23:04:41 73° NNW 23:04:41 73° NNW 23:10:28 10° N
Cosmos 2056 Rocket 4.2 23:06:12 52° NNE 23:06:12 52° NNE 23:10:15 10° NNE
COSMOS 2455 4.2 23:02:45 10° NW 23:06:13 28° WNW 23:06:13 28° WNW
ATLAS 3B R/B 3.8 23:02:07 10° NW 23:09:37 45° NE 23:15:22 16° ESE
BREEZE-M DEB (TANK) 4.3 23:08:09 10° W 23:19:44 41° E 23:22:45 10° E
USA 229 DEB 4.3 23:17:41 10° NW 23:25:01 62° NE 23:28:49 33° ESE
USA 229 4.3 23:17:44 10° NW 23:25:04 62° NE 23:29:01 32° ESE
CZ-2C R/B 3.2 23:26:47 55° NNW 23:26:47 55° NNW 23:31:05 10° NNW
Cosmos 1697 Rocket 3.1 23:22:26 10° NNW 23:27:08 60° N 23:27:08 60° N
Nadezhda 4 Rocket 4.4 23:23:52 10° N 23:29:54 52° ENE 23:30:00 52° E
ATLAS 2AS CENTAUR R/B 2.8 23:31:24 66° E 23:31:24 66° E 23:37:38 10° NE
Cosmos 1464 Rocket 4.4 23:32:21 52° E 23:32:21 52° E 23:37:58 10° NNE
CZ-2C R/B 3.8 23:35:47 10° N 23:39:52 49° NNW 23:39:52 49° NNW
Cosmos 2061 Rocket 4.5 23:41:20 50° WNW 23:41:20 50° WNW 23:47:03 10° N
Cosmos 1980 Rocket 2.8 23:40:52 10° NNW 23:46:27 51° ENE 23:46:54 49° ENE
Cosmos 1867 4.5 23:50:56 41° ENE 23:50:56 41° ENE 23:54:47 10° NE
Cosmos 2034 Rocket 4.5 23:50:22 50° E 23:50:38 50° E 23:56:45 10° NNE
USA 234 4.2 23:44:29 10° E 23:50:39 46° NNE 23:56:50 10° NW
Cosmos 1513 Rocket 4.5 23:53:46 77° WNW 23:53:46 77° WNW 23:59:56 10° N
